Weather History for Romeoville, IL

Change the Weather History Date:

Tuesday, April 9, 2013

  Actual Average Record
Temperature  
Mean Temperature 54 °F 48 °F  
Max Temperature 66 °F 58 °F 76 °F (2001)
Min Temperature 42 °F 37 °F 18 °F (1997)
Degree Days  
Heating Degree Days 11 17  
Month to date heating degree days 184 168  
Since 1 July heating degree days 5644 5713  
Cooling Degree Days 0 0  
Month to date cooling degree days 0 0  
Year to date cooling degree days 0 0  
Growing Degree Days 2 (Base 50)    
Moisture  
Dew Point 45 °F    
Average Humidity 87    
Maximum Humidity 95    
Minimum Humidity 71    
Precipitation  
Precipitation 0.14 in 0.13 in 1.09 in (1995)
Month to date precipitation 0.97 1.00  
Year to date precipitation 9.05 7.48  
Snow  
Snow 0.00 in 0.00 in 0.00 in (2011)
Month to date snowfall T 0.3  
Since 1 July snowfall 23.2 32.1  
Snow Depth 0.00 in    
Sea Level Pressure  
Sea Level Pressure 29.90 in    
Wind  
Wind Speed 11 mph (ENE)    
Max Wind Speed 21 mph    
Max Gust Speed 28 mph    
Visibility 8 miles    
Events Rain , Thunderstorm    
T = Trace of Precipitation, MM = Missing Value Source: NWS Daily Summary

Daily Weather History Graph

Daily Weather History Graph

Search for Another Location

Airport:

Trip Planner

Search our weather history database for the weather conditions in past years. The results will help you decide how hot, cold, wet, or windy it might be!

Date:

Astronomy

Apr. 09, 2013 Rise Set
Actual Time 6:21 AM CDT 7:26 PM CDT
Civil Twilight 5:53 AM CDT 7:55 PM CDT
Nautical Twilight 5:19 AM CDT 8:29 PM CDT
Astronomical Twilight 4:43 AM CDT 9:04 PM CDT
Moon 5:44 AM CDT (4/9) 7:02 PM CDT (4/9)
Length of Visible Light 14h 01m
Length of Day
13h 05m
Waning Crescent, 1% of the Moon is Illuminated
Apr 9
Waning Crescent
Apr 10
New
Apr 18
First Quarter
Apr 25
Full
May 2
Last Quarter

Hourly Weather History & Observations

Time (CDT) Temp. Windchill Dew Point Humidity Pressure Visibility Wind Dir Wind Speed Gust Speed Precip Events Conditions
12:15 AM 43.0 °F 37.7 °F 40.3 °F 90% 29.98 in 7.0 mi East 9.2 mph - N/A   Overcast
12:35 AM 43.2 °F 38.4 °F 40.5 °F 90% 29.98 in 7.0 mi East 8.1 mph - N/A   Overcast
12:55 AM 43.0 °F 37.7 °F 40.3 °F 90% 29.98 in 7.0 mi ENE 9.2 mph - N/A   Overcast
1:15 AM 42.8 °F 36.6 °F 40.5 °F 91% 29.97 in 5.0 mi ENE 11.5 mph - N/A Thunderstorm Overcast
1:35 AM 42.8 °F 37.0 °F 40.5 °F 91% 29.97 in 5.0 mi ENE 10.4 mph - N/A Thunderstorm Overcast
1:55 AM 43.2 °F 37.0 °F 40.6 °F 91% 29.96 in 5.0 mi ENE 11.5 mph - N/A   Overcast
2:15 AM 43.0 °F 40.3 °F 41.0 °F 93% 29.97 in 4.0 mi NE 4.6 mph - N/A Rain , Thunderstorm Heavy Thunderstorms and Rain
2:35 AM 43.0 °F 36.8 °F 41.5 °F 95% 29.95 in 5.0 mi ENE 11.5 mph - N/A Rain , Thunderstorm Light Thunderstorms and Rain
2:55 AM 43.0 °F 36.8 °F 41.4 °F 94% 29.95 in 7.0 mi East 11.5 mph - N/A Thunderstorm Overcast
3:15 AM 43.2 °F 37.4 °F 41.9 °F 95% 29.96 in 5.0 mi NE 10.4 mph - N/A   Mostly Cloudy
3:35 AM 43.0 °F 36.4 °F 41.5 °F 95% 29.94 in 5.0 mi East 12.7 mph - N/A   Scattered Clouds
3:55 AM 43.0 °F 37.2 °F 41.5 °F 95% 29.95 in 5.0 mi East 10.4 mph - N/A   Clear
4:15 AM 43.0 °F 35.4 °F 41.5 °F 95% 29.94 in 7.0 mi ENE 16.1 mph - N/A   Scattered Clouds
4:35 AM 42.8 °F 37.5 °F 41.2 °F 94% 29.95 in 7.0 mi East 9.2 mph - N/A   Scattered Clouds
4:55 AM 43.0 °F 37.2 °F 41.5 °F 95% 29.96 in 7.0 mi ENE 10.4 mph - N/A   Scattered Clouds
5:15 AM 43.2 °F 36.2 °F 41.5 °F 94% 29.95 in 7.0 mi ENE 13.8 mph - N/A   Mostly Cloudy
5:35 AM 43.0 °F 37.2 °F 41.5 °F 95% 29.95 in 5.0 mi ENE 10.4 mph - N/A   Overcast
5:55 AM 42.8 °F 37.0 °F 41.4 °F 95% 29.94 in 5.0 mi East 10.4 mph - N/A   Overcast
6:15 AM 43.3 °F 37.7 °F 41.5 °F 93% 29.93 in 7.0 mi East 10.4 mph - N/A   Overcast
6:35 AM 43.3 °F 36.1 °F 41.4 °F 93% 29.92 in 5.0 mi East 15.0 mph - N/A   Overcast
6:55 AM 44.1 °F 38.1 °F 41.9 °F 92% 29.92 in 5.0 mi East 11.5 mph - N/A   Overcast
7:15 AM 44.6 °F 37.4 °F 42.1 °F 91% 29.91 in 5.0 mi ESE 16.1 mph - N/A   Light Drizzle
7:35 AM 45.1 °F 42.0 °F 42.8 °F 91% 29.93 in 5.0 mi East 5.8 mph - N/A Thunderstorm Overcast
7:55 AM 46.0 °F 41.4 °F 43.3 °F 90% 29.92 in 7.0 mi East 9.2 mph - N/A Thunderstorm Overcast
8:15 AM 46.0 °F 42.5 °F 43.5 °F 91% 29.91 in 5.0 mi ENE 6.9 mph - N/A   Overcast
8:35 AM 46.4 °F 42.4 °F 44.1 °F 92% 29.91 in 4.0 mi ENE 8.1 mph - N/A Rain Rain
8:55 AM 45.9 °F 42.9 °F 44.6 °F 95% 29.91 in 4.0 mi ENE 5.8 mph - N/A Rain Rain
9:15 AM 46.0 °F 41.4 °F 44.8 °F 95% 29.90 in 4.0 mi ENE 9.2 mph - N/A   Overcast
9:35 AM 47.3 °F - 46.0 °F 95% 29.89 in 4.0 mi ENE 10.4 mph - N/A   Overcast
9:55 AM 48.2 °F - 46.6 °F 94% 29.88 in 5.0 mi ENE 10.4 mph - N/A   Overcast
10:15 AM 49.5 °F - 47.5 °F 93% 29.87 in 5.0 mi East 11.5 mph - N/A   Overcast
10:35 AM 50.2 °F - 48.4 °F 94% 29.87 in 5.0 mi East 8.1 mph - N/A   Overcast
10:55 AM 51.6 °F - 49.1 °F 91% 29.87 in 7.0 mi East 8.1 mph - N/A   Overcast
11:15 AM 54.1 °F - 50.9 °F 89% 29.86 in 7.0 mi East 8.1 mph - N/A   Overcast
11:35 AM 55.8 °F - 51.6 °F 86% 29.85 in 7.0 mi ENE 9.2 mph - N/A   Mostly Cloudy
11:55 AM 57.9 °F - 52.5 °F 82% 29.84 in 7.0 mi ENE 8.1 mph - N/A   Mostly Cloudy
12:15 PM 58.3 °F - 53.2 °F 83% 29.84 in 7.0 mi NE 9.2 mph - N/A   Overcast
12:35 PM 56.8 °F - 51.6 °F 83% 29.82 in 7.0 mi NE 10.4 mph - N/A   Overcast
12:55 PM 56.3 °F - 50.9 °F 82% 29.82 in 10.0 mi NE 10.4 mph - N/A   Overcast
1:15 PM 55.9 °F - 50.9 °F 83% 29.84 in 7.0 mi NE 10.4 mph - N/A   Overcast
1:35 PM 56.5 °F - 51.1 °F 82% 29.84 in 7.0 mi NE 9.2 mph - N/A   Overcast
1:55 PM 57.9 °F - 51.1 °F 78% 29.83 in 10.0 mi ENE 8.1 mph - N/A   Overcast
2:15 PM 58.1 °F - 51.3 °F 78% 29.82 in 10.0 mi ENE 10.4 mph - N/A   Overcast
2:35 PM 61.7 °F - 52.7 °F 72% 29.81 in 10.0 mi ENE 6.9 mph - N/A   Mostly Cloudy
2:55 PM 62.6 °F - 53.6 °F 72% 29.81 in 10.0 mi NNE 9.2 mph - N/A Thunderstorm Mostly Cloudy
3:15 PM 62.1 °F - 53.4 °F 73% 29.81 in 10.0 mi NNE 8.1 mph - N/A   Overcast
3:35 PM 63.0 °F - 53.8 °F 72% 29.81 in 10.0 mi NNE 9.2 mph - N/A   Overcast
3:55 PM 63.1 °F - 54.5 °F 73% 29.81 in 10.0 mi NNE 8.1 mph - N/A   Overcast
4:15 PM 64.0 °F - 54.5 °F 71% 29.81 in 10.0 mi NNE 9.2 mph - N/A   Overcast
4:35 PM 64.0 °F - 54.9 °F 72% 29.81 in 10.0 mi NNE 10.4 mph - N/A   Overcast
4:55 PM 63.5 °F - 53.8 °F 71% 29.82 in 10.0 mi NE 9.2 mph - N/A   Overcast
5:15 PM 62.8 °F - 53.6 °F 72% 29.84 in 10.0 mi NNE 13.8 mph - N/A   Overcast
5:35 PM 61.0 °F - 52.2 °F 73% 29.85 in 10.0 mi NE 11.5 mph - N/A   Overcast
5:55 PM 57.9 °F - 49.3 °F 73% 29.86 in 10.0 mi NE 20.7 mph - N/A   Overcast
6:15 PM 51.3 °F - 45.3 °F 80% 29.87 in 10.0 mi NNE 19.6 mph - N/A   Overcast
6:35 PM 49.1 °F - 43.9 °F 82% 29.89 in 10.0 mi NE 17.3 mph 23.0 mph N/A   Overcast
6:55 PM 46.6 °F - 41.9 °F 84% 29.89 in 10.0 mi NE 19.6 mph 23.0 mph N/A   Overcast
7:15 PM 45.3 °F 38.4 °F 41.0 °F 85% 29.90 in 10.0 mi ENE 16.1 mph 21.9 mph N/A   Overcast
7:35 PM 44.6 °F 36.6 °F 40.6 °F 86% 29.90 in 10.0 mi NE 19.6 mph 27.6 mph N/A   Overcast
7:55 PM 44.4 °F 36.1 °F 40.6 °F 87% 29.92 in 10.0 mi ENE 20.7 mph 24.2 mph N/A   Overcast
8:15 PM 43.7 °F 36.0 °F 40.3 °F 88% 29.92 in 10.0 mi ENE 17.3 mph 23.0 mph N/A   Overcast
8:35 PM 43.2 °F 34.7 °F 40.3 °F 90% 29.93 in 10.0 mi ENE 19.6 mph 25.3 mph N/A   Overcast
8:55 PM 43.0 °F 34.2 °F 40.3 °F 90% 29.93 in 10.0 mi NE 20.7 mph 24.2 mph N/A   Overcast
9:15 PM 43.2 °F 35.6 °F 40.6 °F 91% 29.94 in 10.0 mi NE 16.1 mph 20.7 mph N/A   Overcast
9:35 PM 42.8 °F 34.5 °F 40.3 °F 91% 29.94 in 10.0 mi ENE 18.4 mph 24.2 mph N/A   Overcast
9:55 PM 43.0 °F 36.4 °F 40.6 °F 91% 29.93 in 10.0 mi ENE 12.7 mph - N/A   Overcast
10:15 PM 42.8 °F 34.5 °F 40.5 °F 91% 29.92 in 10.0 mi ENE 18.4 mph 23.0 mph N/A   Overcast
10:35 PM 42.8 °F 35.1 °F 40.5 °F 91% 29.93 in 10.0 mi NE 16.1 mph - N/A   Overcast
10:55 PM 42.8 °F 36.2 °F 40.6 °F 92% 29.93 in 10.0 mi NE 12.7 mph 20.7 mph N/A   Overcast
11:15 PM 42.4 °F 37.0 °F 40.5 °F 93% 29.92 in 10.0 mi NE 9.2 mph 19.6 mph N/A   Overcast
11:35 PM 41.9 °F 33.7 °F 40.1 °F 93% 29.92 in 7.0 mi ENE 17.3 mph - N/A   Overcast
11:55 PM 42.1 °F 35.2 °F 40.5 °F 94% 29.92 in 7.0 mi ENE 12.7 mph 18.4 mph N/A   Overcast